User: anonymous
Location: Oshawa
(43.9000°N, 78.8670°W)
Time: 10:06:19
(UTC-04:00)
Language:

Cosmos 1408 Rocket - Orbit

View from above orbital plane
View from above orbital plane
View from above satellite
View from above satellite

Ground track
Ground track

The orbit data is extracted from the following two-line orbital elements,

1 13553U 82092B   14263.99986117  .00000384  00000-0  43474-4 0   176
2 13553 082.5663 085.6959 0023243 109.1607 047.6040 14.83590744728709
Epoch (UTC): 20 September 2014 23:59:48
Eccentricity: 0.0023243
inclination: 82.5663°
perigee height: 602 km
apogee height: 634 km
right ascension of ascending node: 85.6959°
argument of perigee: 109.1607°
revolutions per day: 14.83590744
mean anomaly at epoch: 47.6040°
orbit number at epoch: 72870

The dashed part of the orbit path shows where the satellite is in the earth's shadow,  

DLR